Find Starlink 32150

NORAD ID: 60294 Int'l Des: 2024-132 Owner: SPXS Country: US Constellation: starlink operational
LEOCIRCULAR

实时位置

正在加载3D地球...

关于 Starlink 32150

正在加载描述...

即将过境

Passes for default location (London). Set your location on the main map for personalized predictions.

高度历史

Loading altitude history...

两行轨道根数

1 60294U 24132S 26123.39765514 .00000096 00000-0 15373-4 0 9995
2 60294 53.1597 158.5138 0001798 93.1020 267.0187 15.30192900 99935
Epoch: May 3, 2026 • Age: 18 hours

当前状态

高度 481.0 km
速度 7.62 km/s
星下点 -19.54°S, 73.14°E
发射日期 Jul 28, 2024
运行时间 1.7 years
类型 internet

技术详情

分类 Payload
质量 730.00 kg
干质量 700.00 kg
总质量 730.00 kg
长度 0.30 m
直径 4.10 m
跨度 29.00 m
形状 Box + pan
制造商 SPXS
平台类型 Starlink V2M
阶段状态 In Orbit
所有者/国家 SPXS/US

Most Searched